TimePDT,TemperatureF,Dew PointF,Humidity,Sea Level PressureIn,VisibilityMPH,Wind Direction,Wind SpeedMPH,Gust SpeedMPH,PrecipitationIn,Events,Conditions,WindDirDegrees,DateUTC
12:58 AM,57.7,54.1,88,29.86,10.0,SW,28.8,36.8,N/A,,Clear,230,2013-08-23 07:58:00
1:58 AM,57.6,54.3,89,29.86,10.0,SW,25.3,-,N/A,,Clear,220,2013-08-23 08:58:00
2:58 AM,57.4,54.9,91,29.86,10.0,SW,27.6,34.5,N/A,,Clear,230,2013-08-23 09:58:00
3:58 AM,57.2,55.2,93,29.85,10.0,SW,24.2,32.2,N/A,,Clear,230,2013-08-23 10:58:00
4:58 AM,56.7,55.6,96,29.86,10.0,SW,21.9,-,N/A,,Clear,230,2013-08-23 11:58:00
5:58 AM,56.1,55.2,97,29.87,10.0,SW,18.4,-,N/A,,Clear,230,2013-08-23 12:58:00
6:58 AM,56.1,55.2,97,29.88,10.0,SW,17.3,-,N/A,,Clear,230,2013-08-23 13:58:00
7:58 AM,58.3,55.2,90,29.89,10.0,WSW,17.3,-,N/A,,Clear,240,2013-08-23 14:58:00
8:58 AM,62.4,55.2,77,29.90,10.0,WSW,12.7,-,N/A,,Clear,240,2013-08-23 15:58:00
9:58 AM,65.3,54.7,68,29.91,10.0,WSW,15.0,-,N/A,,Clear,240,2013-08-23 16:58:00
10:58 AM,68.4,54.7,62,29.90,10.0,SW,17.3,-,N/A,,Clear,230,2013-08-23 17:58:00
11:58 AM,72.1,54.9,54,29.89,10.0,WSW,13.8,-,N/A,,Clear,240,2013-08-23 18:58:00
12:58 PM,76.6,55.4,48,29.87,10.0,WSW,12.7,-,N/A,,Clear,240,2013-08-23 19:58:00
1:58 PM,80.8,55.4,42,29.85,10.0,SW,15.0,-,N/A,,Clear,220,2013-08-23 20:58:00
2:58 PM,84.0,55.4,37,29.82,10.0,WSW,18.4,-,N/A,,Clear,240,2013-08-23 21:58:00
3:58 PM,85.1,54.5,35,29.80,10.0,SW,20.7,-,N/A,,Clear,230,2013-08-23 22:58:00
4:58 PM,84.6,56.1,38,29.78,10.0,SW,21.9,-,N/A,,Clear,230,2013-08-23 23:58:00
5:58 PM,79.3,56.5,45,29.76,10.0,SW,21.9,27.6,N/A,,Clear,230,2013-08-24 00:58:00
6:58 PM,75.2,55.6,50,29.75,10.0,SW,24.2,-,N/A,,Clear,230,2013-08-24 01:58:00
7:58 PM,70.0,55.4,60,29.76,10.0,SW,17.3,-,N/A,,Clear,220,2013-08-24 02:58:00
8:58 PM,67.1,55.6,66,29.77,10.0,SW,16.1,25.3,N/A,,Clear,230,2013-08-24 03:58:00
9:58 PM,64.0,55.0,73,29.78,10.0,SW,18.4,-,N/A,,Clear,230,2013-08-24 04:58:00
10:58 PM,63.0,55.0,75,29.77,10.0,SW,20.7,-,N/A,,Clear,230,2013-08-24 05:58:00
11:58 PM,62.1,56.1,81,29.78,10.0,SW,20.7,-,N/A,,Clear,230,2013-08-24 06:58:00